Location: Unspecified
(0.0000°N, 0.0000°E)
Time: 12:21:29
(UTC+00:00)

ACS3 Solar Sail - Pass Details

Date: 13 May 2025
Orbit: 935 x 1009 km, 97.5° (Epoch: 13 May)

Event Time Altitude Azimuth Distance (km) Brightness Sun altitude
Rises 18:15:24 0° 190° (S) 3,689 4.7 -4.5°
Reaches altitude 10° 18:18:15 10° 202° (SSW) 2,727 4.2 -5.2°
Maximum altitude 18:23:19 27° 258° (WSW) 1,744 4.0 -6.4°
Drops below altitude 10° 18:28:18 10° 314° (NW) 2,677 5.3 -7.6°
Sets 18:31:06 0° 326° (NW) 3,609 5.7 -8.2°
